| time (UTC) | temp C | wind direction | speed KPH | gust KPH | rain 1hr cm | rain 24hr cm | rain mn cm | humidity % | barometer mb |
| 20260505152205 | 11 | 74 | 22.5 | 45.1 | 0.00 | 0.00 | 0.00 | 58 | 1010.8 |
| 20260505151705 | 11 | 62 | 11.3 | 51.5 | 0.00 | 0.00 | 0.00 | 58 | 1010.7 |
| 20260505151205 | 11 | 60 | 19.3 | 51.5 | 0.00 | 0.00 | 0.00 | 58 | 1010.6 |
| 20260505150705 | 11 | 57 | 20.9 | 51.5 | 0.00 | 0.00 | 0.00 | 58 | 1010.6 |
| 20260505150205 | 11 | 46 | 25.7 | 51.5 | 0.00 | 0.00 | 0.00 | 58 | 1010.6 |
| 20260505140205 | 11 | 39 | 17.7 | 41.8 | 0.00 | 0.00 | 0.00 | 55 | 1010.4 |
| 20260505130205 | 11 | 67 | 14.5 | 46.7 | 0.00 | 0.00 | 0.00 | 53 | 1009.5 |
| 20260505124705 | 11 | 52 | 20.9 | 49.9 | 0.00 | 0.00 | 0.00 | 52 | 1008.9 |
| 20260505124206 | 11 | 57 | 16.1 | 49.9 | 0.00 | 0.00 | 0.00 | 52 | 1008.7 |
| 20260505123705 | 11 | 54 | 20.9 | 51.5 | 0.00 | 0.00 | 0.00 | 52 | 1008.5 |
| 20260505123205 | 11 | 54 | 17.7 | 51.5 | 0.00 | 0.00 | 0.00 | 52 | 1008.5 |
| 20260505122705 | 11 | 48 | 19.3 | 51.5 | 0.00 | 0.00 | 0.00 | 52 | 1008.5 |
| 20260505122205 | 11 | 45 | 19.3 | 38.6 | 0.00 | 0.00 | 0.00 | 52 | 1008.4 |
| 20260505121705 | 11 | 40 | 17.7 | 38.6 | 0.00 | 0.00 | 0.00 | 53 | 1008.4 |
| 20260505120706 | 11 | 44 | 19.3 | 41.8 | 0.00 | 0.00 | 0.00 | 53 | 1008.3 |
| 20260505120205 | 11 | 63 | 19.3 | 45.1 | 0.00 | 0.00 | 0.00 | 53 | 1008.2 |
| 20260505115705 | 11 | 40 | 19.3 | 45.1 | 0.00 | 0.00 | 0.00 | 53 | 1008.3 |
| 20260505115205 | 11 | 50 | 16.1 | 40.2 | 0.00 | 0.00 | 0.00 | 53 | 1008.1 |
| 20260505114705 | 11 | 39 | 20.9 | 37.0 | 0.00 | 0.00 | 0.00 | 53 | 1008.0 |
| 20260505114205 | 11 | 39 | 16.1 | 37.0 | 0.00 | 0.00 | 0.00 | 52 | 1007.9 |
| 20260505113705 | 12 | 42 | 16.1 | 41.8 | 0.00 | 0.00 | 0.00 | 52 | 1007.8 |
| 20260505113205 | 12 | 30 | 20.9 | 41.8 | 0.00 | 0.00 | 0.00 | 50 | 1007.8 |
| 20260505112205 | 12 | 37 | 17.7 | 41.8 | 0.00 | 0.00 | 0.00 | 50 | 1007.6 |
| 20260505111705 | 12 | 40 | 16.1 | 41.8 | 0.00 | 0.00 | 0.00 | 50 | 1007.6 |
| 20260505111205 | 12 | 26 | 16.1 | 41.8 | 0.00 | 0.00 | 0.00 | 50 | 1007.6 |
| 20260505110705 | 12 | 38 | 14.5 | 40.2 | 0.00 | 0.00 | 0.00 | 50 | 1007.4 |
| 20260505110205 | 12 | 37 | 19.3 | 40.2 | 0.00 | 0.00 | 0.00 | 50 | 1007.3 |
| 20260505102205 | 12 | 50 | 20.9 | 51.5 | 0.00 | 0.00 | 0.00 | 52 | 1006.6 |
| 20260505101705 | 12 | 46 | 22.5 | 45.1 | 0.00 | 0.00 | 0.00 | 52 | 1006.4 |
| 20260505100705 | 12 | 52 | 22.5 | 45.1 | 0.00 | 0.00 | 0.00 | 55 | 1006.3 |
| 20260505100205 | 12 | 62 | 16.1 | 41.8 | 0.00 | 0.00 | 0.00 | 57 | 1006.3 |
| 20260505095205 | 12 | 44 | 22.5 | 45.1 | 0.00 | 0.00 | 0.00 | 55 | 1006.4 |
| 20260505094705 | 12 | 39 | 20.9 | 49.9 | 0.00 | 0.00 | 0.00 | 57 | 1006.4 |
| 20260505094206 | 12 | 30 | 22.5 | 49.9 | 0.00 | 0.00 | 0.00 | 57 | 1006.3 |
| 20260505093205 | 12 | 40 | 22.5 | 49.9 | 0.00 | 0.00 | 0.00 | 58 | 1006.2 |
| 20260505091205 | 13 | 56 | 19.3 | 45.1 | 0.00 | 0.00 | 0.00 | 63 | 1006.0 |
| 20260505090704 | 13 | 50 | 17.7 | 38.6 | 0.00 | 0.00 | 0.00 | 63 | 1005.9 |
| 20260505090206 | 13 | 45 | 17.7 | 49.9 | 0.00 | 0.00 | 0.00 | 64 | 1006.0 |
| 20260505085705 | 13 | 36 | 25.7 | 49.9 | 0.00 | 0.00 | 0.00 | 64 | 1005.9 |
| 20260505084205 | 13 | 38 | 12.9 | 40.2 | 0.00 | 0.00 | 0.00 | 71 | 1005.8 |
| 20260505083705 | 13 | 43 | 16.1 | 46.7 | 0.00 | 0.00 | 0.00 | 71 | 1005.6 |
| 20260505083205 | 13 | 59 | 24.1 | 46.7 | 0.00 | 0.00 | 0.00 | 69 | 1005.5 |
| 20260505082705 | 13 | 37 | 20.9 | 40.2 | 0.00 | 0.00 | 0.00 | 71 | 1005.3 |
| 20260505082205 | 14 | 32 | 19.3 | 38.6 | 0.00 | 0.00 | 0.00 | 73 | 1005.2 |
| 20260505081705 | 14 | 28 | 14.5 | 41.8 | 0.00 | 0.00 | 0.00 | 75 | 1005.1 |
| 20260505080705 | 15 | 45 | 17.7 | 40.2 | 0.00 | 0.00 | 0.00 | 76 | 1004.8 |
| 20260505075706 | 15 | 28 | 19.3 | 38.6 | 0.00 | 0.00 | 0.00 | 76 | 1004.7 |
| 20260505074705 | 15 | 38 | 17.7 | 41.8 | 0.00 | 0.00 | 0.00 | 76 | 1004.7 |
| 20260505074206 | 15 | 36 | 14.5 | 41.8 | 0.00 | 0.00 | 0.00 | 76 | 1004.8 |
| 20260505073706 | 15 | 69 | 12.9 | 35.4 | 0.00 | 0.00 | 0.00 | 76 | 1004.7 |
| 20260505073205 | 15 | 36 | 14.5 | 32.2 | 0.00 | 0.00 | 0.00 | 76 | 1004.7 |
| 20260505072705 | 15 | 31 | 14.5 | 32.2 | 0.00 | 0.00 | 0.00 | 77 | 1004.6 |
| 20260505071205 | 15 | 43 | 14.5 | 29.0 | 0.00 | 0.00 | 0.00 | 78 | 1004.5 |
| 20260505070705 | 15 | 45 | 14.5 | 29.0 | 0.00 | 0.00 | 0.00 | 78 | 1004.4 |
| 20260505070205 | 16 | 38 | 11.3 | 29.0 | 0.00 | 0.00 | 0.00 | 77 | 1004.3 |
| 20260505065705 | 16 | 45 | 11.3 | 22.5 | 0.00 | 0.00 | 0.00 | 73 | 1004.4 |
| 20260505065205 | 17 | 15 | 11.3 | 22.5 | 0.00 | 0.00 | 0.00 | 70 | 1004.4 |
| 20260505064205 | 18 | 18 | 9.7 | 24.1 | 0.00 | 0.00 | 0.00 | 68 | 1004.2 |
| 20260505063705 | 18 | 40 | 9.7 | 24.1 | 0.00 | 0.00 | 0.00 | 69 | 1004.1 |
| 20260505063205 | 18 | 70 | 11.3 | 24.1 | 0.00 | 0.00 | 0.00 | 66 | 1004.0 |
| 20260505062205 | 18 | 68 | 12.9 | 40.2 | 0.00 | 0.00 | 0.00 | 66 | 1004.2 |
| 20260505060706 | 20 | 117 | 1.6 | 14.5 | 0.00 | 0.00 | 0.00 | 76 | 1004.1 |
| 20260505060205 | 20 | 117 | 1.6 | 19.3 | 0.00 | 0.00 | 0.00 | 75 | 1003.8 |
| 20260505055706 | 21 | 116 | 9.7 | 19.3 | 0.00 | 0.00 | 0.00 | 73 | 1003.6 |
| 20260505055205 | 21 | 78 | 9.7 | 19.3 | 0.00 | 0.00 | 0.00 | 70 | 1003.4 |
| 20260505054705 | 21 | 104 | 4.8 | 22.5 | 0.00 | 0.00 | 0.00 | 69 | 1003.3 |
| 20260505054206 | 21 | 95 | 11.3 | 22.5 | 0.00 | 0.00 | 0.00 | 69 | 1003.2 |
| 20260505053706 | 21 | 124 | 4.8 | 14.5 | 0.00 | 0.00 | 0.00 | 70 | 1003.3 |
| 20260505053205 | 21 | 137 | 4.8 | 12.9 | 0.00 | 0.00 | 0.00 | 71 | 1003.1 |
| 20260505052705 | 21 | 141 | 4.8 | 12.9 | 0.00 | 0.00 | 0.00 | 71 | 1003.2 |
| 20260505052204 | 21 | 142 | 6.4 | 12.9 | 0.00 | 0.00 | 0.00 | 71 | 1003.2 |
| 20260505051705 | 21 | 124 | 4.8 | 14.5 | 0.00 | 0.00 | 0.00 | 71 | 1003.1 |
| 20260505050704 | 21 | 43 | 9.7 | 19.3 | 0.00 | 0.00 | 0.00 | 70 | 1003.2 |
| 20260505050205 | 21 | 103 | 9.7 | 19.3 | 0.00 | 0.00 | 0.00 | 70 | 1003.3 |
| 20260505041705 | 21 | 118 | 1.6 | 16.1 | 0.00 | 0.00 | 0.00 | 69 | 1002.7 |
| 20260505041205 | 21 | 131 | 8.0 | 16.1 | 0.00 | 0.00 | 0.00 | 69 | 1002.7 |
| 20260505040705 | 21 | 163 | 4.8 | 16.1 | 0.00 | 0.00 | 0.00 | 68 | 1002.6 |
| 20260505040205 | 21 | 152 | 9.7 | 16.1 | 0.00 | 0.00 | 0.00 | 68 | 1002.5 |
| 20260505035705 | 21 | 150 | 6.4 | 14.5 | 0.00 | 0.00 | 0.00 | 67 | 1002.7 |
| 20260505034205 | 21 | 114 | 8.0 | 16.1 | 0.00 | 0.00 | 0.00 | 65 | 1002.8 |
| 20260505033705 | 21 | 110 | 8.0 | 16.1 | 0.00 | 0.00 | 0.00 | 65 | 1002.7 |
| 20260505033208 | 22 | 81 | 9.7 | 19.3 | 0.00 | 0.00 | 0.00 | 64 | 1002.5 |
| 20260505032719 | 22 | 140 | 9.7 | 24.1 | 0.00 | 0.00 | 0.00 | 64 | 1002.4 |
| 20260505032218 | 22 | 136 | 9.7 | 24.1 | 0.00 | 0.00 | 0.00 | 63 | 1002.4 |
| 20260505030704 | 22 | 113 | 9.7 | 22.5 | 0.00 | 0.00 | 0.00 | 60 | 1002.6 |
| 20260505030205 | 22 | 136 | 9.7 | 19.3 | 0.00 | 0.00 | 0.00 | 60 | 1002.5 |
| 20260505025205 | 22 | 142 | 9.7 | 25.7 | 0.00 | 0.00 | 0.00 | 59 | 1002.3 |
| 20260505023705 | 23 | 148 | 17.7 | 35.4 | 0.00 | 0.00 | 0.00 | 59 | 1002.3 |
| 20260505022722 | 23 | 146 | 25.7 | 35.4 | 0.00 | 0.00 | 0.00 | 58 | 1002.4 |
| 20260505022206 | 23 | 154 | 22.5 | 37.0 | 0.00 | 0.00 | 0.00 | 58 | 1002.2 |
| 20260505021705 | 23 | 147 | 20.9 | 37.0 | 0.00 | 0.00 | 0.00 | 58 | 1002.3 |
| 20260505021206 | 23 | 150 | 19.3 | 29.0 | 0.00 | 0.00 | 0.00 | 57 | 1002.4 |
| 20260505020705 | 23 | 162 | 9.7 | 24.1 | 0.00 | 0.00 | 0.00 | 57 | 1002.9 |
| 20260505015705 | 23 | 150 | 11.3 | 22.5 | 0.00 | 0.00 | 0.00 | 55 | 1003.1 |
| 20260505015214 | 23 | 158 | 11.3 | 22.5 | 0.00 | 0.00 | 0.00 | 54 | 1003.3 |
| 20260505014705 | 23 | 158 | 9.7 | 24.1 | 0.00 | 0.00 | 0.00 | 53 | 1003.3 |
| 20260505014205 | 23 | 146 | 11.3 | 24.1 | 0.00 | 0.00 | 0.00 | 53 | 1003.0 |
| 20260505013705 | 23 | 157 | 9.7 | 22.5 | 0.00 | 0.00 | 0.00 | 52 | 1002.8 |
| 20260505013205 | 23 | 154 | 12.9 | 24.1 | 0.00 | 0.00 | 0.00 | 51 | 1002.5 |
| 20260505011705 | 23 | 155 | 14.5 | 27.4 | 0.00 | 0.00 | 0.00 | 50 | 1002.2 |
| 20260505011205 | 24 | 154 | 16.1 | 25.7 | 0.00 | 0.00 | 0.00 | 50 | 1002.1 |
| 20260505010705 | 24 | 152 | 11.3 | 25.7 | 0.00 | 0.00 | 0.00 | 49 | 1002.0 |
| 20260505010205 | 24 | 150 | 14.5 | 29.0 | 0.00 | 0.00 | 0.00 | 49 | 1002.1 |
| 20260505005705 | 24 | 155 | 17.7 | 29.0 | 0.00 | 0.00 | 0.00 | 48 | 1002.0 |
| 20260505005206 | 24 | 156 | 16.1 | 27.4 | 0.00 | 0.00 | 0.00 | 47 | 1001.9 |
| 20260505004205 | 25 | 152 | 16.1 | 32.2 | 0.00 | 0.00 | 0.00 | 46 | 1001.9 |
| 20260505003705 | 25 | 154 | 20.9 | 32.2 | 0.00 | 0.00 | 0.00 | 46 | 1002.0 |
| 20260505003205 | 25 | 141 | 17.7 | 25.7 | 0.00 | 0.00 | 0.00 | 45 | 1001.9 |
| 20260505002205 | 25 | 152 | 16.1 | 25.7 | 0.00 | 0.00 | 0.00 | 44 | 1002.1 |
| 20260505001705 | 25 | 157 | 14.5 | 25.7 | 0.00 | 0.00 | 0.00 | 44 | 1002.1 |
| 20260505000722 | 25 | 145 | 14.5 | 29.0 | 0.00 | 0.00 | 0.00 | 43 | 1002.2 |
| 20260505000205 | 26 | 149 | 19.3 | 32.2 | 0.00 | 0.00 | 0.00 | 43 | 1002.1 |
| 20260504235705 | 26 | 158 | 16.1 | 32.2 | 0.00 | 0.00 | 0.00 | 43 | 1002.2 |
| 20260504235205 | 26 | 145 | 14.5 | 27.4 | 0.00 | 0.00 | 0.00 | 42 | 1002.2 |
| 20260504234705 | 26 | 143 | 17.7 | 27.4 | 0.00 | 0.00 | 0.00 | 42 | 1002.2 |
| 20260504234205 | 26 | 150 | 16.1 | 29.0 | 0.00 | 0.00 | 0.00 | 42 | 1002.2 |
| 20260504233705 | 26 | 155 | 12.9 | 29.0 | 0.00 | 0.00 | 0.00 | 42 | 1002.3 |
| 20260504233206 | 26 | 151 | 17.7 | 29.0 | 0.00 | 0.00 | 0.00 | 42 | 1002.4 |
| 20260504231706 | 26 | 148 | 14.5 | 37.0 | 0.00 | 0.00 | 0.00 | 41 | 1002.3 |
| 20260504231206 | 26 | 145 | 20.9 | 37.0 | 0.00 | 0.00 | 0.00 | 41 | 1002.3 |
| 20260504230705 | 27 | 145 | 20.9 | 32.2 | 0.00 | 0.00 | 0.00 | 40 | 1002.2 |
| 20260504230205 | 27 | 154 | 12.9 | 40.2 | 0.00 | 0.00 | 0.00 | 41 | 1002.1 |
| 20260504225704 | 27 | 152 | 16.1 | 40.2 | 0.00 | 0.00 | 0.00 | 40 | 1002.1 |
| 20260504225205 | 27 | 146 | 20.9 | 38.6 | 0.00 | 0.00 | 0.00 | 40 | 1002.2 |
| 20260504224204 | 27 | 140 | 17.7 | 29.0 | 0.00 | 0.00 | 0.00 | 39 | 1002.1 |
| 20260504223704 | 27 | 152 | 16.1 | 29.0 | 0.00 | 0.00 | 0.00 | 39 | 1002.1 |
| 20260504222705 | 28 | 151 | 20.9 | 32.2 | 0.00 | 0.00 | 0.00 | 39 | 1002.1 |
| 20260504222205 | 28 | 144 | 20.9 | 32.2 | 0.00 | 0.00 | 0.00 | 39 | 1002.1 |
| 20260504221705 | 28 | 144 | 19.3 | 32.2 | 0.00 | 0.00 | 0.00 | 38 | 1002.0 |
| 20260504221205 | 28 | 138 | 16.1 | 32.2 | 0.00 | 0.00 | 0.00 | 38 | 1002.1 |
| 20260504220705 | 28 | 152 | 19.3 | 32.2 | 0.00 | 0.00 | 0.00 | 38 | 1002.1 |
| 20260504220204 | 28 | 173 | 14.5 | 32.2 | 0.00 | 0.00 | 0.00 | 37 | 1002.1 |
| 20260504215705 | 28 | 131 | 17.7 | 35.4 | 0.00 | 0.00 | 0.00 | 36 | 1002.2 |
| 20260504215207 | 28 | 164 | 16.1 | 35.4 | 0.00 | 0.00 | 0.00 | 35 | 1002.2 |
| 20260504214705 | 28 | 167 | 19.3 | 32.2 | 0.00 | 0.00 | 0.00 | 36 | 1002.2 |
| 20260504214205 | 28 | 146 | 16.1 | 37.0 | 0.00 | 0.00 | 0.00 | 36 | 1002.3 |
| 20260504213705 | 28 | 161 | 14.5 | 37.0 | 0.00 | 0.00 | 0.00 | 36 | 1002.4 |
| 20260504213205 | 29 | 137 | 11.3 | 29.0 | 0.00 | 0.00 | 0.00 | 35 | 1002.4 |
| 20260504212704 | 28 | 161 | 14.5 | 27.4 | 0.00 | 0.00 | 0.00 | 34 | 1002.6 |
| 20260504211705 | 29 | 157 | 9.7 | 29.0 | 0.00 | 0.00 | 0.00 | 32 | 1002.5 |
| 20260504211205 | 29 | 202 | 14.5 | 29.0 | 0.00 | 0.00 | 0.00 | 32 | 1002.5 |
| 20260504210706 | 29 | 156 | 17.7 | 32.2 | 0.00 | 0.00 | 0.00 | 30 | 1002.6 |
| 20260504205705 | 29 | 145 | 19.3 | 38.6 | 0.00 | 0.00 | 0.00 | 30 | 1002.7 |
| 20260504205205 | 30 | 232 | 20.9 | 35.4 | 0.00 | 0.00 | 0.00 | 28 | 1002.8 |
| 20260504204205 | 30 | 144 | 11.3 | 29.0 | 0.00 | 0.00 | 0.00 | 29 | 1003.0 |
| 20260504203204 | 29 | 154 | 14.5 | 27.4 | 0.00 | 0.00 | 0.00 | 30 | 1003.1 |
| 20260504202705 | 29 | 165 | 14.5 | 27.4 | 0.00 | 0.00 | 0.00 | 29 | 1003.1 |
| 20260504202205 | 29 | 149 | 8.0 | 27.4 | 0.00 | 0.00 | 0.00 | 33 | 1003.2 |
| 20260504201706 | 29 | 153 | 1.6 | 24.1 | 0.00 | 0.00 | 0.00 | 36 | 1003.2 |
| 20260504201206 | 29 | 156 | 4.8 | 24.1 | 0.00 | 0.00 | 0.00 | 33 | 1003.4 |
| 20260504200705 | 29 | 167 | 14.5 | 24.1 | 0.00 | 0.00 | 0.00 | 30 | 1003.5 |
| 20260504200205 | 30 | 144 | 8.0 | 19.3 | 0.00 | 0.00 | 0.00 | 33 | 1003.6 |
| 20260504195705 | 29 | 236 | 4.8 | 12.9 | 0.00 | 0.00 | 0.00 | 39 | 1003.6 |
| 20260504195205 | 29 | 237 | 4.8 | 19.3 | 0.00 | 0.00 | 0.00 | 36 | 1003.7 |
| 20260504194705 | 29 | 130 | 8.0 | 19.3 | 0.00 | 0.00 | 0.00 | 32 | 1003.8 |
| 20260504194205 | 29 | 171 | 9.7 | 19.3 | 0.00 | 0.00 | 0.00 | 32 | 1003.8 |
| 20260504193705 | 29 | 203 | 8.0 | 19.3 | 0.00 | 0.00 | 0.00 | 33 | 1004.0 |
| 20260504193205 | 29 | 75 | 3.2 | 22.5 | 0.00 | 0.00 | 0.00 | 36 | 1003.9 |
| 20260504192205 | 28 | 111 | 4.8 | 22.5 | 0.00 | 0.00 | 0.00 | 38 | 1004.0 |
| 20260504191705 | 28 | 149 | 9.7 | 19.3 | 0.00 | 0.00 | 0.00 | 35 | 1004.2 |
| 20260504191205 | 28 | 149 | 4.8 | 27.4 | 0.00 | 0.00 | 0.00 | 35 | 1004.3 |
| 20260504190705 | 28 | 224 | 11.3 | 27.4 | 0.00 | 0.00 | 0.00 | 36 | 1004.3 |
| 20260504190205 | 28 | 104 | 1.6 | 12.9 | 0.00 | 0.00 | 0.00 | 38 | 1004.4 |
| 20260504185704 | 27 | 109 | 3.2 | 12.9 | 0.00 | 0.00 | 0.00 | 37 | 1004.4 |
| 20260504185206 | 27 | 111 | 4.8 | 12.9 | 0.00 | 0.00 | 0.00 | 37 | 1004.4 |
| 20260504184205 | 27 | 149 | 6.4 | 12.9 | 0.00 | 0.00 | 0.00 | 37 | 1004.5 |
| 20260504183705 | 27 | 191 | 8.0 | 11.3 | 0.00 | 0.00 | 0.00 | 40 | 1004.5 |
| 20260504183206 | 26 | 185 | 4.8 | 22.5 | 0.00 | 0.00 | 0.00 | 40 | 1004.6 |
| 20260504182705 | 26 | 199 | 4.8 | 22.5 | 0.00 | 0.00 | 0.00 | 38 | 1004.7 |
| 20260504181706 | 26 | 157 | 8.0 | 22.5 | 0.00 | 0.00 | 0.00 | 39 | 1004.8 |
| 20260504181205 | 26 | 174 | 3.2 | 16.1 | 0.00 | 0.00 | 0.00 | 39 | 1004.9 |
| 20260504180705 | 26 | 234 | 4.8 | 24.1 | 0.00 | 0.00 | 0.00 | 40 | 1005.0 |
| 20260504175706 | 27 | 214 | 9.7 | 22.5 | 0.00 | 0.00 | 0.00 | 38 | 1005.1 |
| 20260504175204 | 26 | 179 | 3.2 | 24.1 | 0.00 | 0.00 | 0.00 | 44 | 1005.1 |
| 20260504174705 | 26 | 159 | 9.7 | 24.1 | 0.00 | 0.00 | 0.00 | 40 | 1005.3 |
| 20260504174206 | 26 | 254 | 9.7 | 24.1 | 0.00 | 0.00 | 0.00 | 42 | 1005.4 |
| 20260504173705 | 26 | 225 | 8.0 | 25.7 | 0.00 | 0.00 | 0.00 | 40 | 1005.3 |
| 20260504173205 | 26 | 249 | 14.5 | 25.7 | 0.00 | 0.00 | 0.00 | 39 | 1005.4 |
| 20260504172704 | 26 | 224 | 9.7 | 24.1 | 0.00 | 0.00 | 0.00 | 41 | 1005.3 |
| 20260504172205 | 26 | 283 | 9.7 | 24.1 | 0.00 | 0.00 | 0.00 | 41 | 1005.3 |
| 20260504171205 | 25 | 233 | 9.7 | 25.7 | 0.00 | 0.00 | 0.00 | 45 | 1005.4 |
| 20260504170705 | 24 | 226 | 8.0 | 25.7 | 0.00 | 0.00 | 0.00 | 42 | 1005.3 |
| 20260504170205 | 25 | 206 | 14.5 | 25.7 | 0.00 | 0.00 | 0.00 | 41 | 1005.3 |
| 20260504160205 | 22 | 198 | 19.3 | 32.2 | 0.00 | 0.00 | 0.00 | 47 | 1005.1 |